• In Czech Republic
  • List of Countries
  • For 7 days
  • Water Temperature
  • Satellite Maps
  • Weather Map
  • Weather Widgets
  • user-avatar
    Login

    Hourly Weather Alcobendas

    Today, 23 June, Saturday

    Time Temperature Precipitation Wind Pressure Humidity
    00:00 +25°C° 0 mm 4 mps 704 mmHg 52%
    01:00 +24°C° 0 mm 3 mps 704 mmHg 54%
    02:00 +24°C° 0 mm 3 mps 704 mmHg 57%
    03:00 +22°C° 0 mm 3 mps 704 mmHg 59%
    04:00 +23°C° 0 mm 2 mps 704 mmHg 57%
    05:00 +24°C° 0 mm 2 mps 704 mmHg 56%
    06:00 +24°C° 0 mm 2 mps 705 mmHg 54%
    07:00 +26°C° 0 mm 2 mps 705 mmHg 47%
    08:00 +28°C° 0 mm 2 mps 705 mmHg 39%
    09:00 +30°C° 0 mm 2 mps 705 mmHg 32%
    10:00 +31°C° 0 mm 2 mps 705 mmHg 29%
    11:00 +34°C° 0 mm 2 mps 705 mmHg 25%
    12:00 +34°C° 0 mm 1 mps 705 mmHg 22%
    13:00 +35°C° 0 mm 1 mps 705 mmHg 21%
    14:00 +36°C° 0 mm 1 mps 704 mmHg 19%
    15:00 +36°C° 0 mm 1 mps 704 mmHg 18%
    16:00 +36°C° 0 mm 1 mps 704 mmHg 18%
    17:00 +35°C° 0 mm 1 mps 703 mmHg 19%
    18:00 +35°C° 0 mm 1 mps 703 mmHg 20%
    19:00 +34°C° 0 mm 2 mps 703 mmHg 23%
    20:00 +31°C° 0 mm 2 mps 704 mmHg 26%
    21:00 +29°C° 0 mm 2 mps 704 mmHg 29%
    22:00 +28°C° 0 mm 3 mps 704 mmHg 34%
    23:00 +27°C° 0 mm 3 mps 704 mmHg 38%

    Tomorrow, 24 June, Sunday

    Time Temperature Precipitation Wind Pressure Humidity
    00:00 +26°C° 0 mm 3 mps 704 mmHg 43%
    01:00 +25°C° 0 mm 3 mps 704 mmHg 46%
    02:00 +25°C° 0 mm 3 mps 703 mmHg 48%
    03:00 +24°C° 0 mm 3 mps 703 mmHg 51%
    04:00 +24°C° 0 mm 3 mps 703 mmHg 52%
    05:00 +24°C° 0 mm 3 mps 703 mmHg 53%
    06:00 +24°C° 0 mm 2 mps 704 mmHg 55%
    07:00 +26°C° 0 mm 2 mps 704 mmHg 49%
    08:00 +28°C° 0 mm 2 mps 704 mmHg 43%
    09:00 +29°C° 0 mm 2 mps 704 mmHg 38%
    10:00 +31°C° 0 mm 2 mps 704 mmHg 34%
    11:00 +34°C° 0 mm 2 mps 704 mmHg 29%
    12:00 +35°C° 0 mm 1 mps 704 mmHg 25%
    13:00 +36°C° 0 mm 2 mps 704 mmHg 23%
    14:00 +37°C° 0 mm 2 mps 703 mmHg 21%
    15:00 +38°C° 0 mm 2 mps 703 mmHg 19%
    16:00 +37°C° 0 mm 2 mps 703 mmHg 20%
    17:00 +36°C° 0 mm 1 mps 703 mmHg 21%
    18:00 +36°C° 0 mm 1 mps 703 mmHg 22%
    19:00 +35°C° 0 mm 2 mps 703 mmHg 25%
    20:00 +32°C° 0 mm 2 mps 703 mmHg 28%
    21:00 +30°C° 0 mm 2 mps 703 mmHg 31%
    22:00 +29°C° 0 mm 3 mps 703 mmHg 35%
    23:00 +28°C° 0 mm 3 mps 703 mmHg 38%

    Day after tomorrow, 25 June, Monday

    Time Temperature Precipitation Wind Pressure Humidity
    00:00 +27°C° 0 mm 3 mps 703 mmHg 42%
    01:00 +26°C° 0 mm 3 mps 703 mmHg 44%
    02:00 +26°C° 0 mm 3 mps 703 mmHg 47%
    03:00 +25°C° 0 mm 3 mps 703 mmHg 49%
    04:00 +25°C° 0 mm 2 mps 703 mmHg 50%
    05:00 +25°C° 0 mm 2 mps 703 mmHg 51%
    06:00 +25°C° 0 mm 2 mps 703 mmHg 52%
    07:00 +27°C° 0 mm 2 mps 703 mmHg 47%
    08:00 +29°C° 0 mm 2 mps 704 mmHg 43%
    09:00 +30°C° 0 mm 2 mps 704 mmHg 38%
    10:00 +32°C° 0 mm 2 mps 704 mmHg 35%
    11:00 +34°C° 0 mm 2 mps 704 mmHg 31%
    12:00 +36°C° 0 mm 2 mps 704 mmHg 27%
    13:00 +37°C° 0 mm 2 mps 704 mmHg 25%
    14:00 +37°C° 0 mm 3 mps 704 mmHg 23%
    15:00 +38°C° 0 mm 3 mps 703 mmHg 21%
    16:00 +38°C° 0 mm 3 mps 703 mmHg 22%
    17:00 +37°C° 0 mm 3 mps 703 mmHg 22%
    18:00 +37°C° 0 mm 3 mps 703 mmHg 23%
    19:00 +35°C° 0 mm 3 mps 703 mmHg 26%
    20:00 +33°C° 0 mm 3 mps 703 mmHg 30%
    21:00 +30°C° 0 mm 3 mps 704 mmHg 34%
    22:00 +29°C° 0.1 mm 3 mps 704 mmHg 37%
    23:00 +28°C° 0.1 mm 3 mps 704 mmHg 39%

    26 June, Tuesday

    Time Temperature Precipitation Wind Pressure Humidity
    00:00 +27°C° 0.1 mm 3 mps 704 mmHg 42%
    01:00 +27°C° 0 mm 3 mps 704 mmHg 45%
    02:00 +26°C° 0 mm 2 mps 703 mmHg 47%
    03:00 +25°C° 0 mm 2 mps 703 mmHg 49%
    04:00 +25°C° 0 mm 2 mps 703 mmHg 50%
    05:00 +25°C° 0 mm 2 mps 703 mmHg 52%
    06:00 +25°C° 0 mm 1 mps 703 mmHg 53%
    07:00 +27°C° 0 mm 1 mps 704 mmHg 48%
    08:00 +29°C° 0 mm 1 mps 704 mmHg 43%
    09:00 +30°C° 0 mm 1 mps 704 mmHg 38%
    10:00 +32°C° 0 mm 2 mps 704 mmHg 34%
    11:00 +34°C° 0 mm 2 mps 704 mmHg 31%
    12:00 +35°C° 0 mm 3 mps 704 mmHg 27%
    13:00 +36°C° 0 mm 3 mps 703 mmHg 26%
    14:00 +36°C° 0 mm 3 mps 703 mmHg 24%
    15:00 +36°C° 0 mm 4 mps 703 mmHg 22%
    16:00 +36°C° 0 mm 4 mps 703 mmHg 23%
    17:00 +35°C° 0 mm 4 mps 702 mmHg 25%
    18:00 +35°C° 0 mm 3 mps 702 mmHg 26%
    19:00 +33°C° 0.1 mm 3 mps 703 mmHg 29%
    20:00 +31°C° 0.1 mm 2 mps 703 mmHg 32%
    21:00 +29°C° 0.1 mm 2 mps 703 mmHg 35%
    22:00 +28°C° 0.1 mm 2 mps 703 mmHg 39%
    23:00 +27°C° 0.1 mm 3 mps 703 mmHg 42%

    27 June, Wednesday

    Time Temperature Precipitation Wind Pressure Humidity
    00:00 +26°C° 0.1 mm 3 mps 703 mmHg 46%
    01:00 +25°C° 0 mm 3 mps 703 mmHg 48%
    02:00 +24°C° 0 mm 2 mps 702 mmHg 51%
    03:00 +24°C° 0 mm 2 mps 702 mmHg 54%
    04:00 +24°C° 0.1 mm 2 mps 702 mmHg 55%
    05:00 +24°C° 0.1 mm 2 mps 703 mmHg 55%
    06:00 +24°C° 0.1 mm 2 mps 703 mmHg 56%
    07:00 +25°C° 0 mm 2 mps 703 mmHg 50%
    08:00 +27°C° 0 mm 2 mps 703 mmHg 45%
    09:00 +28°C° 0 mm 3 mps 703 mmHg 39%
    10:00 +30°C° 0 mm 3 mps 703 mmHg 34%
    11:00 +32°C° 0 mm 4 mps 703 mmHg 30%
    12:00 +33°C° 0 mm 4 mps 703 mmHg 25%
    13:00 +34°C° 0 mm 4 mps 702 mmHg 24%
    14:00 +34°C° 0 mm 4 mps 702 mmHg 23%
    15:00 +34°C° 0 mm 4 mps 702 mmHg 22%
    16:00 +34°C° 0 mm 4 mps 701 mmHg 23%
    17:00 +34°C° 0 mm 4 mps 701 mmHg 24%
    18:00 +33°C° 0 mm 3 mps 701 mmHg 25%
    19:00 +31°C° 0 mm 3 mps 701 mmHg 27%
    20:00 +29°C° 0 mm 3 mps 702 mmHg 28%
    21:00 +28°C° 0 mm 2 mps 702 mmHg 30%
    22:00 +27°C° 0.1 mm 3 mps 702 mmHg 35%
    23:00 +26°C° 0.1 mm 3 mps 702 mmHg 39%

    28 June, Thursday

    Time Temperature Precipitation Wind Pressure Humidity
    00:00 +26°C° 0.1 mm 4 mps 702 mmHg 44%
    01:00 +25°C° 0.3 mm 4 mps 701 mmHg 48%
    02:00 +24°C° 0.3 mm 3 mps 701 mmHg 53%
    03:00 +22°C° 0.3 mm 3 mps 701 mmHg 58%
    04:00 +22°C° 0.3 mm 3 mps 701 mmHg 59%
    05:00 +22°C° 0.3 mm 3 mps 701 mmHg 60%
    06:00 +21°C° 0.3 mm 3 mps 701 mmHg 61%
    07:00 +22°C° 0.3 mm 3 mps 701 mmHg 57%
    08:00 +24°C° 0.3 mm 3 mps 701 mmHg 54%
    09:00 +25°C° 0.3 mm 3 mps 701 mmHg 50%
    10:00 +26°C° 0.2 mm 3 mps 701 mmHg 46%
    11:00 +28°C° 0.2 mm 3 mps 701 mmHg 42%
    12:00 +29°C° 0.2 mm 3 mps 700 mmHg 38%
    13:00 +29°C° 0.1 mm 3 mps 700 mmHg 37%
    14:00 +29°C° 0.1 mm 3 mps 700 mmHg 36%
    15:00 +30°C° 0.1 mm 3 mps 699 mmHg 36%
    16:00 +29°C° 0.2 mm 3 mps 699 mmHg 36%
    17:00 +29°C° 0.2 mm 3 mps 699 mmHg 37%
    18:00 +29°C° 0.2 mm 3 mps 699 mmHg 38%
    19:00 +27°C° 0.5 mm 3 mps 699 mmHg 43%
    20:00 +26°C° 0.5 mm 3 mps 699 mmHg 47%
    21:00 +24°C° 0.5 mm 3 mps 699 mmHg 52%
    22:00 +24°C° 0.9 mm 3 mps 699 mmHg 57%
    23:00 +22°C° 0.9 mm 3 mps 699 mmHg 62%
    Show more